CQ0XBF-11 Weather Reports


time (UTC)temp
C
wind
direction
speed
KPH
gust
KPH
rain 1hr
cm
rain 24hr
cm
rain mn
cm
humidity
%
barometer
mb
20200930031823 15 281 3.2 12.9 0.00 0.00 0.00 89 1011.8
20200930031622 15 327 4.8 8.0 0.00 0.00 0.00 88 1011.7
20200930031420 15 255 1.6 8.0 0.00 0.00 0.00 88 1011.7
20200930031218 15 64 1.6 8.0 0.00 0.00 0.00 88 1011.8
20200930031018 15 180 1.6 8.0 0.00 0.00 0.00 88 1011.8
20200930030820 15 281 3.2 8.0 0.00 0.00 0.00 88 1011.8
20200930030614 15 213 0.0 8.0 0.00 0.00 0.00 88 1011.8
20200930030413 15 340 1.6 8.0 0.00 0.00 0.00 87 1011.8
20200930030211 15 216 3.2 8.0 0.00 0.00 0.00 87 1011.9
20200930030020 15 198 0.0 11.3 0.00 0.00 0.00 87 1011.8
20200930025808 15 320 1.6 11.3 0.00 0.00 0.00 87 1011.9
20200930025606 15 354 1.6 11.3 0.00 0.00 0.00 87 1011.9
20200930025406 15 126 3.2 11.3 0.00 0.00 0.00 87 1011.8
20200930025203 15 253 1.6 11.3 0.00 0.00 0.00 87 1011.8
20200930025005 15 174 0.0 6.4 0.00 0.00 0.00 86 1011.8
20200930024803 15 305 0.0 6.4 0.00 0.00 0.00 86 1011.8
20200930024605 15 333 4.8 6.4 0.00 0.00 0.00 86 1011.8
20200930024403 15 237 1.6 6.4 0.00 0.00 0.00 85 1011.8
20200930024201 15 18 1.6 9.7 0.00 0.00 0.00 85 1011.8
20200930023955 15 262 0.0 9.7 0.00 0.00 0.00 85 1011.8
20200930023754 15 323 3.2 9.7 0.00 0.00 0.00 85 1011.8
20200930023559 15 323 4.8 4.8 0.00 0.00 0.00 84 1011.9
20200930023349 16 253 1.6 4.8 0.00 0.00 0.00 84 1011.8
20200930023147 16 9 3.2 8.0 0.00 0.00 0.00 84 1011.8
20200930022946 16 248 3.2 8.0 0.00 0.00 0.00 84 1011.9
20200930022744 16 172 1.6 8.0 0.00 0.00 0.00 84 1011.9
20200930022544 16 279 0.0 8.0 0.00 0.00 0.00 84 1011.9
20200930022341 16 341 8.0 8.0 0.00 0.00 0.00 83 1011.9
20200930022141 15 233 0.0 8.0 0.00 0.00 0.00 82 1011.9
20200930021938 16 253 1.6 8.0 0.00 0.00 0.00 83 1011.9
20200930021738 16 208 0.0 8.0 0.00 0.00 0.00 82 1011.9
20200930021536 16 18 0.0 9.7 0.00 0.00 0.00 82 1011.9
20200930021335 16 358 4.8 9.7 0.00 0.00 0.00 82 1011.9
20200930021133 16 333 4.8 11.3 0.00 0.00 0.00 82 1011.9
20200930020932 16 217 0.0 11.3 0.00 0.00 0.00 81 1011.9
20200930020734 16 239 0.0 11.3 0.00 0.00 0.00 81 1011.9
20200930020527 16 338 4.8 8.0 0.00 0.00 0.00 81 1012.0
20200930020325 16 331 6.4 8.0 0.00 0.00 0.00 80 1012.0
20200930020125 16 208 1.6 11.3 0.00 0.00 0.00 79 1012.0
20200930015922 16 277 1.6 11.3 0.00 0.00 0.00 78 1012.0
20200930015725 16 194 1.6 11.3 0.00 0.00 0.00 78 1012.1
20200930015519 16 222 1.6 9.7 0.00 0.00 0.00 78 1012.0
20200930015323 16 240 4.8 9.7 0.00 0.00 0.00 76 1012.0
20200930015116 16 334 6.4 6.4 0.00 0.00 0.00 75 1012.0
20200930014916 16 196 3.2 6.4 0.00 0.00 0.00 75 1012.0
20200930014713 16 30 0.0 6.4 0.00 0.00 0.00 73 1012.0
20200930014524 16 206 0.0 6.4 0.00 0.00 0.00 73 1012.0
20200930014311 16 323 6.4 6.4 0.00 0.00 0.00 72 1012.0
20200930014109 16 227 1.6 4.8 0.00 0.00 0.00 71 1012.1
20200930013908 16 230 1.6 4.8 0.00 0.00 0.00 70 1012.1
20200930013718 17 220 0.0 4.8 0.00 0.00 0.00 70 1012.1
20200930013509 16 286 1.6 6.4 0.00 0.00 0.00 69 1012.1
20200930013303 16 203 1.6 6.4 0.00 0.00 0.00 69 1012.1
20200930013103 16 113 1.6 8.0 0.00 0.00 0.00 69 1012.1
20200930012859 16 309 0.0 8.0 0.00 0.00 0.00 68 1012.1
20200930012658 16 358 0.0 8.0 0.00 0.00 0.00 68 1012.1
20200930012500 17 195 3.2 6.4 0.00 0.00 0.00 68 1012.1
20200930012259 16 295 0.0 6.4 0.00 0.00 0.00 68 1012.0
20200930012054 16 195 0.0 9.7 0.00 0.00 0.00 68 1012.0
20200930011853 16 282 6.4 9.7 0.00 0.00 0.00 68 1012.0
20200930011653 16 260 1.6 8.0 0.00 0.00 0.00 68 1012.0
20200930011448 16 12 0.0 8.0 0.00 0.00 0.00 67 1012.0
20200930011045 17 241 0.0 8.0 0.00 0.00 0.00 67 1012.0
20200930010849 17 80 1.6 8.0 0.00 0.00 0.00 66 1012.0
20200930010642 17 257 0.0 8.0 0.00 0.00 0.00 66 1012.0
20200930010439 17 265 0.0 8.0 0.00 0.00 0.00 66 1012.0
20200930010237 17 227 1.6 8.0 0.00 0.00 0.00 65 1012.1
20200930010036 17 305 0.0 8.0 0.00 0.00 0.00 65 1012.0
20200930005834 17 53 1.6 8.0 0.00 0.00 0.00 64 1011.9
20200930005633 17 289 6.4 11.3 0.00 0.00 0.00 63 1012.0
20200930005432 17 157 0.0 11.3 0.00 0.00 0.00 63 1011.9
20200930005230 17 291 0.0 11.3 0.00 0.00 0.00 63 1012.0
20200930005030 17 201 0.0 9.7 0.00 0.00 0.00 62 1012.0
20200930004827 17 358 1.6 9.7 0.00 0.00 0.00 62 1011.9
20200930004626 17 213 0.0 6.4 0.00 0.00 0.00 61 1012.0
20200930004427 17 329 4.8 6.4 0.00 0.00 0.00 61 1012.0
20200930004224 17 341 0.0 6.4 0.00 0.00 0.00 61 1012.0
20200930004023 17 194 0.0 8.0 0.00 0.00 0.00 61 1012.0
20200930003821 17 156 0.0 8.0 0.00 0.00 0.00 61 1012.0
20200930003617 17 212 1.6 8.0 0.00 0.00 0.00 61 1012.0
20200930003416 17 39 1.6 8.0 0.00 0.00 0.00 61 1012.0
20200930003217 17 7 1.6 8.0 0.00 0.00 0.00 61 1012.0
20200930003020 17 340 1.6 9.7 0.00 0.00 0.00 61 1012.0
20200930002814 17 351 4.8 9.7 0.00 0.00 0.00 61 1012.0
20200930002610 17 180 0.0 11.3 0.00 0.00 0.00 61 1012.0
20200930002412 17 333 4.8 11.3 0.00 0.00 0.00 61 1012.0
20200930002207 17 133 6.4 11.3 0.00 0.00 0.00 61 1012.0
20200930002012 17 305 4.8 6.4 0.00 0.00 0.00 61 1012.0
20200930001803 17 216 1.6 6.4 0.00 0.00 0.00 62 1012.0
20200930001602 17 30 1.6 11.3 0.00 0.00 0.00 62 1012.0
20200930001401 17 305 1.6 11.3 0.00 0.00 0.00 61 1012.1
20200930001159 17 267 3.2 11.3 0.00 0.00 0.00 62 1012.0
20200930001000 17 194 3.2 8.0 0.00 0.00 0.00 62 1012.0
20200930000758 17 320 9.7 8.0 0.00 0.00 0.00 62 1012.0
20200930000557 17 277 0.0 8.0 0.00 0.00 0.00 62 1011.9
20200930000356 17 334 8.0 8.0 0.00 0.00 0.00 62 1012.0
20200930000151 17 202 0.0 11.3 0.00 0.00 0.00 62 1011.9
20200929235949 17 358 3.2 11.3 0.00 0.00 0.00 62 1011.9
20200929235748 17 99 1.6 11.3 0.00 0.00 0.00 62 1011.9
20200929235549 17 316 3.2 8.0 0.00 0.00 0.00 62 1012.0
20200929235344 18 30 4.8 8.0 0.00 0.00 0.00 63 1011.9
20200929235143 17 216 1.6 8.0 0.00 0.00 0.00 63 1011.9
20200929234941 18 271 3.2 8.0 0.00 0.00 0.00 63 1011.9
20200929234742 18 146 3.2 8.0 0.00 0.00 0.00 63 1011.9
20200929234539 18 220 0.0 6.4 0.00 0.00 0.00 63 1011.9
20200929234337 17 147 0.0 6.4 0.00 0.00 0.00 63 1011.9
20200929234138 18 246 3.2 4.8 0.00 0.00 0.00 63 1011.9
20200929233934 18 338 4.8 4.8 0.00 0.00 0.00 63 1011.9
20200929233734 18 187 1.6 4.8 0.00 0.00 0.00 63 1011.8
20200929233533 18 92 0.0 6.4 0.00 0.00 0.00 63 1011.9
20200929233330 18 220 1.6 6.4 0.00 0.00 0.00 63 1011.8
20200929233127 18 102 4.8 8.0 0.00 0.00 0.00 63 1011.8
20200929232928 18 233 1.6 8.0 0.00 0.00 0.00 63 1011.9
20200929232724 18 106 0.0 8.0 0.00 0.00 0.00 63 1011.9
20200929232522 18 12 0.0 8.0 0.00 0.00 0.00 63 1011.9
20200929232325 18 317 3.2 8.0 0.00 0.00 0.00 63 1011.9
20200929232120 18 130 1.6 6.4 0.00 0.00 0.00 63 1011.9
20200929231918 18 149 3.2 6.4 0.00 0.00 0.00 63 1011.9
20200929231716 18 213 1.6 6.4 0.00 0.00 0.00 63 1011.9
20200929231528 18 199 1.6 4.8 0.00 0.00 0.00 63 1011.9
20200929231319 18 326 1.6 4.8 0.00 0.00 0.00 64 1011.9
20200929231112 18 310 3.2 6.4 0.00 0.00 0.00 64 1011.9
20200929230914 18 334 1.6 6.4 0.00 0.00 0.00 64 1011.9
20200929230709 18 210 1.6 6.4 0.00 0.00 0.00 64 1011.9
20200929230507 18 195 0.0 9.7 0.00 0.00 0.00 64 1011.9
20200929230306 18 180 1.6 9.7 0.00 0.00 0.00 64 1011.9
20200929230104 18 127 0.0 8.0 0.00 0.00 0.00 64 1011.9
20200929225902 18 19 1.6 8.0 0.00 0.00 0.00 64 1012.0
20200929225701 18 236 0.0 8.0 0.00 0.00 0.00 64 1012.0
20200929225459 18 282 0.0 11.3 0.00 0.00 0.00 64 1012.0
20200929225257 18 226 1.6 11.3 0.00 0.00 0.00 65 1012.0
20200929225059 18 223 0.0 9.7 0.00 0.00 0.00 65 1012.1
20200929224855 18 315 0.0 9.7 0.00 0.00 0.00 65 1012.1
20200929224653 18 323 1.6 6.4 0.00 0.00 0.00 65 1012.1
20200929224451 18 345 4.8 6.4 0.00 0.00 0.00 65 1012.1
20200929224250 18 167 0.0 6.4 0.00 0.00 0.00 65 1012.0
20200929224048 18 135 0.0 6.4 0.00 0.00 0.00 65 1012.0
20200929223848 18 319 3.2 6.4 0.00 0.00 0.00 65 1012.0
20200929223645 18 198 1.6 6.4 0.00 0.00 0.00 65 1012.0
20200929223246 18 341 0.0 6.4 0.00 0.00 0.00 66 1011.9
20200929223041 18 222 1.6 8.0 0.00 0.00 0.00 66 1011.9
20200929222846 18 225 1.6 8.0 0.00 0.00 0.00 66 1011.9
20200929222638 18 336 1.6 8.0 0.00 0.00 0.00 66 1011.9
20200929222437 18 315 1.6 8.0 0.00 0.00 0.00 65 1012.0
20200929222234 19 68 3.2 8.0 0.00 0.00 0.00 65 1011.9
20200929222033 18 285 1.6 8.0 0.00 0.00 0.00 65 1011.9
20200929221834 18 262 1.6 8.0 0.00 0.00 0.00 65 1012.0
20200929221629 18 226 1.6 12.9 0.00 0.00 0.00 65 1011.9
20200929221429 18 257 1.6 12.9 0.00 0.00 0.00 65 1011.9
20200929221226 18 28 1.6 12.9 0.00 0.00 0.00 65 1011.9
20200929221025 18 213 6.4 8.0 0.00 0.00 0.00 65 1011.9
20200929220823 18 331 6.4 8.0 0.00 0.00 0.00 65 1011.9
20200929220622 18 312 8.0 6.4 0.00 0.00 0.00 64 1011.9
20200929220420 19 199 1.6 6.4 0.00 0.00 0.00 64 1011.9
20200929220220 19 333 0.0 6.4 0.00 0.00 0.00 63 1011.9
20200929220022 19 323 3.2 9.7 0.00 0.00 0.00 63 1011.9
20200929215816 19 212 1.6 9.7 0.00 0.00 0.00 63 1011.9
20200929215614 19 168 1.6 12.9 0.00 0.00 0.00 63 1011.8
20200929215412 19 52 0.0 12.9 0.00 0.00 0.00 63 1011.9
20200929215212 19 333 6.4 12.9 0.00 0.00 0.00 63 1011.8
20200929215010 19 217 1.6 9.7 0.00 0.00 0.00 63 1011.7
20200929214808 19 315 8.0 9.7 0.00 0.00 0.00 63 1011.8
20200929214606 19 300 4.8 9.7 0.00 0.00 0.00 63 1011.8
20200929214406 19 217 1.6 9.7 0.00 0.00 0.00 63 1011.8
20200929214204 19 237 6.4 9.7 0.00 0.00 0.00 62 1011.8
20200929214009 19 298 1.6 12.9 0.00 0.00 0.00 62 1011.8
20200929213807 19 303 4.8 12.9 0.00 0.00 0.00 62 1011.8
20200929213558 19 250 3.2 9.7 0.00 0.00 0.00 62 1011.7
20200929213357 19 344 3.2 9.7 0.00 0.00 0.00 61 1011.8
20200929213156 20 236 0.0 9.7 0.00 0.00 0.00 61 1011.8
20200929212954 20 143 1.6 11.3 0.00 0.00 0.00 61 1011.7
20200929212752 20 182 0.0 11.3 0.00 0.00 0.00 60 1011.7
20200929212551 20 334 6.4 8.0 0.00 0.00 0.00 60 1011.7
20200929212351 20 74 3.2 8.0 0.00 0.00 0.00 60 1011.7
20200929212148 20 265 4.8 9.7 0.00 0.00 0.00 60 1011.7
20200929211959 20 291 0.0 9.7 0.00 0.00 0.00 60 1011.8
20200929211746 20 358 3.2 9.7 0.00 0.00 0.00 60 1011.8
20200929211548 20 196 3.2 9.7 0.00 0.00 0.00 59 1011.7
20200929211342 20 341 6.4 9.7 0.00 0.00 0.00 59 1011.7
20200929211140 20 210 0.0 9.7 0.00 0.00 0.00 59 1011.7
20200929210940 20 15 6.4 9.7 0.00 0.00 0.00 58 1011.7
20200929210737 20 11 4.8 9.7 0.00 0.00 0.00 58 1011.7
20200929210535 20 319 4.8 9.7 0.00 0.00 0.00 58 1011.7
20200929210334 20 157 0.0 9.7 0.00 0.00 0.00 58 1011.7
20200929210132 20 261 4.8 11.3 0.00 0.00 0.00 57 1011.7
20200929205932 20 203 1.6 11.3 0.00 0.00 0.00 57 1011.6
20200929205730 20 250 1.6 11.3 0.00 0.00 0.00 57 1011.6
20200929205527 20 9 6.4 12.9 0.00 0.00 0.00 56 1011.6
20200929205326 20 333 4.8 12.9 0.00 0.00 0.00 56 1011.6
20200929205129 21 132 0.0 11.3 0.00 0.00 0.00 55 1011.6
20200929204923 21 315 3.2 11.3 0.00 0.00 0.00 55 1011.6
20200929204721 21 358 4.8 11.3 0.00 0.00 0.00 55 1011.5
20200929204520 21 78 1.6 11.3 0.00 0.00 0.00 55 1011.5
20200929204318 21 344 8.0 11.3 0.00 0.00 0.00 54 1011.5
20200929204118 21 180 1.6 11.3 0.00 0.00 0.00 54 1011.5
20200929203915 21 323 4.8 11.3 0.00 0.00 0.00 54 1011.4
20200929203714 21 344 4.8 11.3 0.00 0.00 0.00 53 1011.4
20200929203511 21 322 3.2 8.0 0.00 0.00 0.00 53 1011.4
20200929203315 21 317 3.2 8.0 0.00 0.00 0.00 53 1011.3
20200929203108 21 82 3.2 9.7 0.00 0.00 0.00 52 1011.3
20200929202907 21 219 1.6 9.7 0.00 0.00 0.00 52 1011.3
20200929202707 21 357 3.2 9.7 0.00 0.00 0.00 52 1011.3
20200929202512 21 334 1.6 6.4 0.00 0.00 0.00 51 1011.3
20200929202305 21 319 0.0 6.4 0.00 0.00 0.00 51 1011.3
20200929202101 21 215 0.0 9.7 0.00 0.00 0.00 51 1011.2
20200929201859 22 191 4.8 9.7 0.00 0.00 0.00 51 1011.2
20200929201707 22 343 3.2 9.7 0.00 0.00 0.00 50 1011.2
20200929201456 21 109 0.0 4.8 0.00 0.00 0.00 50 1011.2
20200929201255 22 85 0.0 4.8 0.00 0.00 0.00 50 1011.2
20200929201055 22 239 3.2 8.0 0.00 0.00 0.00 50 1011.2
20200929200853 22 250 1.6 8.0 0.00 0.00 0.00 50 1011.2
20200929200650 22 268 0.0 8.0 0.00 0.00 0.00 50 1011.2
20200929200448 22 217 0.0 8.0 0.00 0.00 0.00 51 1011.2
20200929200246 22 46 0.0 8.0 0.00 0.00 0.00 50 1011.2
20200929200046 22 198 3.2 6.4 0.00 0.00 0.00 50 1011.2
20200929195644 22 307 1.6 8.0 0.00 0.00 0.00 51 1011.2
20200929195440 22 85 0.0 8.0 0.00 0.00 0.00 51 1011.1
20200929195252 22 319 0.0 8.0 0.00 0.00 0.00 51 1011.1
20200929195038 22 347 3.2 6.4 0.00 0.00 0.00 51 1011.0
20200929194836 22 2 0.0 6.4 0.00 0.00 0.00 51 1011.0
20200929194634 22 246 3.2 8.0 0.00 0.00 0.00 51 1011.0
20200929194433 22 192 0.0 8.0 0.00 0.00 0.00 51 1011.0
20200929194231 22 144 0.0 8.0 0.00 0.00 0.00 51 1011.0
20200929194030 22 329 3.2 3.2 0.00 0.00 0.00 51 1011.0
20200929193828 22 143 1.6 3.2 0.00 0.00 0.00 51 1011.0
20200929193626 23 286 0.0 6.4 0.00 0.00 0.00 51 1011.0
20200929193425 22 229 0.0 6.4 0.00 0.00 0.00 51 1011.0
20200929193223 23 275 0.0 6.4 0.00 0.00 0.00 51 1011.0
20200929193026 23 292 4.8 4.8 0.00 0.00 0.00 51 1011.0
20200929192821 23 295 1.6 4.8 0.00 0.00 0.00 51 1011.0
20200929192618 23 264 0.0 8.0 0.00 0.00 0.00 50 1011.0
20200929192417 23 195 0.0 8.0 0.00 0.00 0.00 51 1011.0
20200929192217 23 226 0.0 8.0 0.00 0.00 0.00 51 1011.0
20200929192015 23 25 0.0 4.8 0.00 0.00 0.00 51 1010.9
20200929191815 23 9 0.0 4.8 0.00 0.00 0.00 51 1010.9
20200929191612 23 2 0.0 11.3 0.00 0.00 0.00 51 1010.9
20200929191409 23 329 3.2 11.3 0.00 0.00 0.00 51 1010.9
20200929191209 23 296 1.6 11.3 0.00 0.00 0.00 50 1010.8
20200929191011 23 260 0.0 11.3 0.00 0.00 0.00 50 1010.8
20200929190808 23 354 4.8 11.3 0.00 0.00 0.00 50 1010.8
20200929190603 23 347 0.0 8.0 0.00 0.00 0.00 50 1010.8
20200929190404 23 12 1.6 8.0 0.00 0.00 0.00 50 1010.8
20200929190203 23 327 3.2 8.0 0.00 0.00 0.00 50 1010.8
20200929185958 23 340 1.6 8.0 0.00 0.00 0.00 50 1010.8
20200929185757 23 316 8.0 8.0 0.00 0.00 0.00 50 1010.8
20200929185557 23 358 4.8 11.3 0.00 0.00 0.00 49 1010.8
20200929185353 23 354 4.8 11.3 0.00 0.00 0.00 49 1010.8
20200929185153 23 184 0.0 11.3 0.00 0.00 0.00 49 1010.8
20200929184950 23 286 4.8 11.3 0.00 0.00 0.00 48 1010.8
20200929184749 24 317 3.2 11.3 0.00 0.00 0.00 47 1010.7
20200929184548 24 343 6.4 9.7 0.00 0.00 0.00 47 1010.7
20200929184347 23 36 3.2 9.7 0.00 0.00 0.00 47 1010.8
20200929184144 23 330 3.2 6.4 0.00 0.00 0.00 46 1010.7
20200929183946 24 313 0.0 6.4 0.00 0.00 0.00 45 1010.7
20200929183744 24 247 0.0 6.4 0.00 0.00 0.00 45 1010.7
20200929183546 24 2 0.0 9.7 0.00 0.00 0.00 45 1010.6
20200929183339 24 28 3.2 9.7 0.00 0.00 0.00 44 1010.7
20200929183137 24 317 0.0 8.0 0.00 0.00 0.00 44 1010.5
20200929182935 24 18 1.6 8.0 0.00 0.00 0.00 44 1010.6
20200929182739 24 338 6.4 8.0 0.00 0.00 0.00 43 1010.6
20200929182533 24 23 6.4 12.9 0.00 0.00 0.00 43 1010.6
20200929182338 24 331 4.8 12.9 0.00 0.00 0.00 42 1010.6
20200929182132 25 340 4.8 11.3 0.00 0.00 0.00 42 1010.5
20200929181930 25 345 8.0 11.3 0.00 0.00 0.00 41 1010.5
20200929181726 25 18 4.8 11.3 0.00 0.00 0.00 41 1010.5
20200929181524 25 157 1.6 14.5 0.00 0.00 0.00 40 1010.5
20200929181322 25 329 4.8 14.5 0.00 0.00 0.00 40 1010.5
20200929181123 25 330 9.7 12.9 0.00 0.00 0.00 40 1010.5
20200929180922 25 343 3.2 12.9 0.00 0.00 0.00 40 1010.5
20200929180719 25 1 8.0 12.9 0.00 0.00 0.00 39 1010.4
20200929180516 25 306 6.4 14.5 0.00 0.00 0.00 39 1010.4
20200929180317 25 358 8.0 14.5 0.00 0.00 0.00 38 1010.5
20200929180115 25 324 1.6 12.9 0.00 0.00 0.00 38 1010.4
20200929175912 25 66 4.8 12.9 0.00 0.00 0.00 38 1010.4
20200929175718 25 11 1.6 12.9 0.00 0.00 0.00 38 1010.4
20200929175511 25 21 0.0 17.7 0.00 0.00 0.00 37 1010.4
20200929175307 25 348 4.8 17.7 0.00 0.00 0.00 37 1010.3
20200929175105 25 338 9.7 16.1 0.00 0.00 0.00 37 1010.3
20200929174906 25 340 11.3 16.1 0.00 0.00 0.00 37 1010.3
20200929174702 25 85 8.0 16.1 0.00 0.00 0.00 38 1010.3
20200929174509 25 53 8.0 16.1 0.00 0.00 0.00 38 1010.3
20200929174303 25 354 1.6 16.1 0.00 0.00 0.00 38 1010.2
20200929174058 25 337 4.8 14.5 0.00 0.00 0.00 38 1010.3
20200929173858 25 358 11.3 14.5 0.00 0.00 0.00 38 1010.3
20200929173700 26 340 9.7 12.9 0.00 0.00 0.00 38 1010.3
20200929173454 26 330 9.7 12.9 0.00 0.00 0.00 38 1010.2
20200929173251 26 355 6.4 12.9 0.00 0.00 0.00 38 1010.2
20200929173051 26 340 4.8 17.7 0.00 0.00 0.00 38 1010.2
20200929172850 26 22 1.6 17.7 0.00 0.00 0.00 38 1010.2
20200929172648 26 334 9.7 12.9 0.00 0.00 0.00 38 1010.2
20200929172244 26 358 8.0 12.9 0.00 0.00 0.00 39 1010.2
20200929172041 26 22 3.2 11.3 0.00 0.00 0.00 39 1010.1
20200929171840 26 326 0.0 11.3 0.00 0.00 0.00 39 1010.1
20200929171638 26 303 3.2 16.1 0.00 0.00 0.00 38 1010.1
20200929171440 26 22 3.2 16.1 0.00 0.00 0.00 38 1010.1
20200929171235 26 4 6.4 16.1 0.00 0.00 0.00 38 1010.2
20200929171034 26 2 8.0 14.5 0.00 0.00 0.00 38 1010.1
20200929170832 26 326 11.3 14.5 0.00 0.00 0.00 37 1010.2
20200929170630 26 358 11.3 16.1 0.00 0.00 0.00 37 1010.2
20200929170428 26 46 8.0 16.1 0.00 0.00 0.00 37 1010.1
20200929170228 26 275 6.4 16.1 0.00 0.00 0.00 37 1010.0
20200929170032 27 21 9.7 19.3 0.00 0.00 0.00 37 1010.0
20200929165826 27 358 6.4 19.3 0.00 0.00 0.00 36 1010.0
20200929165622 27 338 9.7 17.7 0.00 0.00 0.00 36 1010.0
20200929165421 27 358 11.3 17.7 0.00 0.00 0.00 36 1010.0
20200929165219 27 354 8.0 17.7 0.00 0.00 0.00 36 1010.0
20200929165019 27 319 14.5 24.1 0.00 0.00 0.00 35 1010.0
20200929164817 27 354 9.7 24.1 0.00 0.00 0.00 35 1010.1
20200929164616 27 358 11.3 20.9 0.00 0.00 0.00 35 1010.1
20200929164413 27 302 9.7 20.9 0.00 0.00 0.00 35 1010.0
20200929164215 28 331 8.0 20.9 0.00 0.00 0.00 34 1009.9
20200929164011 28 333 11.3 20.9 0.00 0.00 0.00 34 1010.0
20200929163812 28 358 12.9 20.9 0.00 0.00 0.00 33 1009.9
20200929163610 28 351 9.7 20.9 0.00 0.00 0.00 33 1009.8
20200929163405 28 358 14.5 20.9 0.00 0.00 0.00 32 1009.9
20200929163203 28 336 11.3 20.9 0.00 0.00 0.00 32 1009.9
20200929163009 28 338 11.3 22.5 0.00 0.00 0.00 32 1009.8
20200929162804 28 326 11.3 22.5 0.00 0.00 0.00 32 1009.9
20200929162559 29 315 16.1 24.1 0.00 0.00 0.00 31 1009.8
20200929162358 29 338 11.3 24.1 0.00 0.00 0.00 31 1009.7
20200929162203 29 358 8.0 24.1 0.00 0.00 0.00 31 1009.8
20200929161955 30 330 16.1 24.1 0.00 0.00 0.00 30 1009.8
20200929161753 30 329 9.7 24.1 0.00 0.00 0.00 30 1009.8
20200929161551 30 355 11.3 19.3 0.00 0.00 0.00 30 1009.7
20200929161350 30 319 6.4 19.3 0.00 0.00 0.00 29 1009.7
20200929161149 31 316 14.5 14.5 0.00 0.00 0.00 29 1009.7
20200929160946 31 344 11.3 14.5 0.00 0.00 0.00 27 1009.7
20200929160747 31 14 8.0 14.5 0.00 0.00 0.00 26 1009.7
20200929160544 32 324 4.8 8.0 0.00 0.00 0.00 22 1009.7
20200929160341 32 12 3.2 8.0 0.00 0.00 0.00 17 1009.8
20200929160141 32 14 1.6 11.3 0.00 0.00 0.00 14 1009.8
20200929155938 33 299 0.0 11.3 0.00 0.00 0.00 13 1009.8
20200929155738 32 323 3.2 11.3 0.00 0.00 0.00 13 1009.8
20200929155535 32 302 4.8 9.7 0.00 0.00 0.00 13 1009.8
20200929155334 32 340 0.0 9.7 0.00 0.00 0.00 13 1009.8
20200929155132 32 338 3.2 12.9 0.00 0.00 0.00 13 1009.9
20200929154931 32 281 0.0 12.9 0.00 0.00 0.00 14 1009.8
20200929154731 32 327 6.4 12.9 0.00 0.00 0.00 13 1009.9
20200929154531 32 334 3.2 9.7 0.00 0.00 0.00 13 1009.9
20200929154327 32 292 0.0 9.7 0.00 0.00 0.00 14 1009.9
20200929154124 32 307 3.2 16.1 0.00 0.00 0.00 14 1009.9
20200929153923 32 327 3.2 16.1 0.00 0.00 0.00 14 1009.9
20200929153721 32 333 1.6 16.1 0.00 0.00 0.00 14 1010.0
20200929153520 32 1 8.0 9.7 0.00 0.00 0.00 15 1010.0
20200929153318 32 313 6.4 9.7 0.00 0.00 0.00 14 1009.9
20200929153116 32 278 0.0 12.9 0.00 0.00 0.00 14 1009.9
20200929152915 32 307 0.0 12.9 0.00 0.00 0.00 14 1009.9
20200929152716 32 344 4.8 12.9 0.00 0.00 0.00 14 1009.9
20200929152513 32 313 8.0 6.4 0.00 0.00 0.00 14 1009.9
20200929152317 32 351 4.8 6.4 0.00 0.00 0.00 14 1010.0
20200929152109 32 19 0.0 6.4 0.00 0.00 0.00 14 1010.0
20200929151909 32 343 3.2 6.4 0.00 0.00 0.00 14 1010.0
20200929151706 32 11 0.0 6.4 0.00 0.00 0.00 14 1010.0
20200929151518 32 167 0.0 11.3 0.00 0.00 0.00 14 1010.0
20200929151303 32 323 0.0 11.3 0.00 0.00 0.00 14 1010.1
20200929151102 31 261 0.0 11.3 0.00 0.00 0.00 15 1010.1
20200929150900 32 341 9.7 11.3 0.00 0.00 0.00 15 1010.1
20200929150703 32 316 6.4 11.3 0.00 0.00 0.00 15 1010.0
20200929150500 32 337 9.7 12.9 0.00 0.00 0.00 14 1010.1
20200929150255 32 317 3.2 12.9 0.00 0.00 0.00 15 1010.2
20200929150053 32 329 6.4 14.5 0.00 0.00 0.00 15 1010.1
20200929145852 32 274 3.2 14.5 0.00 0.00 0.00 15 1010.2
20200929145650 32 319 8.0 16.1 0.00 0.00 0.00 15 1010.2
20200929145448 32 306 6.4 16.1 0.00 0.00 0.00 15 1010.1
20200929145259 32 336 4.8 16.1 0.00 0.00 0.00 16 1010.2
20200929144844 31 315 4.8 16.1 0.00 0.00 0.00 16 1010.2
20200929144642 32 333 6.4 9.7 0.00 0.00 0.00 16 1010.2
20200929144441 32 302 11.3 9.7 0.00 0.00 0.00 15 1010.2
20200929144243 32 317 1.6 9.7 0.00 0.00 0.00 16 1010.2
20200929144038 31 303 1.6 12.9 0.00 0.00 0.00 16 1010.3
20200929143840 32 298 3.2 12.9 0.00 0.00 0.00 16 1010.2
20200929143635 31 14 3.2 9.7 0.00 0.00 0.00 16 1010.3
20200929143433 32 316 8.0 9.7 0.00 0.00 0.00 16 1010.3
20200929143233 32 336 3.2 9.7 0.00 0.00 0.00 15 1010.3
20200929142832 32 189 0.0 4.8 0.00 0.00 0.00 15 1010.3
20200929142626 32 310 3.2 9.7 0.00 0.00 0.00 15 1010.4
20200929142424 32 232 0.0 9.7 0.00 0.00 0.00 15 1010.4
20200929142221 31 284 1.6 9.7 0.00 0.00 0.00 15 1010.4
20200929142021 31 239 0.0 9.7 0.00 0.00 0.00 16 1010.4
20200929141821 31 306 4.8 9.7 0.00 0.00 0.00 16 1010.5
20200929141619 31 306 3.2 9.7 0.00 0.00 0.00 16 1010.5
20200929141415 31 320 0.0 9.7 0.00 0.00 0.00 17 1010.5
20200929141214 31 344 4.8 9.7 0.00 0.00 0.00 16 1010.5
20200929141012 31 337 6.4 12.9 0.00 0.00 0.00 17 1010.6
20200929140814 30 343 4.8 12.9 0.00 0.00 0.00 17 1010.6
20200929140609 31 309 6.4 9.7 0.00 0.00 0.00 17 1010.6
20200929140408 30 344 9.7 9.7 0.00 0.00 0.00 17 1010.6
20200929140211 31 358 4.8 9.7 0.00 0.00 0.00 17 1010.6
20200929140006 31 323 6.4 11.3 0.00 0.00 0.00 17 1010.7
20200929135804 31 340 8.0 11.3 0.00 0.00 0.00 17 1010.8
20200929135601 31 331 8.0 8.0 0.00 0.00 0.00 17 1010.7
20200929135401 31 302 1.6 8.0 0.00 0.00 0.00 16 1010.7
20200929135158 31 337 1.6 8.0 0.00 0.00 0.00 16 1010.7
20200929134956 31 309 0.0 11.3 0.00 0.00 0.00 17 1010.8
20200929134755 31 8 0.0 11.3 0.00 0.00 0.00 17 1010.8
20200929134555 31 32 6.4 14.5 0.00 0.00 0.00 17 1010.8
20200929134352 30 285 0.0 14.5 0.00 0.00 0.00 17 1010.9
20200929134150 30 43 1.6 16.1 0.00 0.00 0.00 17 1011.0
20200929133953 31 75 3.2 16.1 0.00 0.00 0.00 17 1010.9
20200929133759 30 310 3.2 16.1 0.00 0.00 0.00 17 1011.0
20200929133546 31 320 8.0 12.9 0.00 0.00 0.00 17 1011.0
20200929133344 30 354 3.2 12.9 0.00 0.00 0.00 18 1011.0
20200929133151 30 112 0.0 14.5 0.00 0.00 0.00 19 1011.0
20200929132941 30 358 3.2 14.5 0.00 0.00 0.00 19 1011.0
20200929132740 30 330 4.8 14.5 0.00 0.00 0.00 18 1011.1
20200929132538 30 340 6.4 12.9 0.00 0.00 0.00 18 1011.1
20200929132338 30 327 6.4 12.9 0.00 0.00 0.00 18 1011.2
20200929132136 30 310 8.0 12.9 0.00 0.00 0.00 18 1011.2
20200929131934 30 331 1.6 12.9 0.00 0.00 0.00 17 1011.2
20200929131734 30 326 6.4 12.9 0.00 0.00 0.00 19 1011.2
20200929131531 29 334 9.7 14.5 0.00 0.00 0.00 18 1011.3
20200929131328 29 320 9.7 14.5 0.00 0.00 0.00 20 1011.3
20200929131127 29 320 11.3 12.9 0.00 0.00 0.00 20 1011.3
20200929130928 30 340 9.7 12.9 0.00 0.00 0.00 20 1011.3
20200929130724 29 317 8.0 12.9 0.00 0.00 0.00 19 1011.4
20200929130522 29 330 3.2 14.5 0.00 0.00 0.00 20 1011.4
20200929130327 28 307 11.3 14.5 0.00 0.00 0.00 20 1011.4
20200929130119 28 338 6.4 14.5 0.00 0.00 0.00 20 1011.4
20200929125918 28 23 8.0 14.5 0.00 0.00 0.00 20 1011.4
20200929125717 29 336 4.8 14.5 0.00 0.00 0.00 21 1011.5
20200929125515 29 351 4.8 11.3 0.00 0.00 0.00 20 1011.5
20200929125354 29 330 3.2 11.3 0.00 0.00 0.00 20 1011.5
20200929125123 29 309 4.8 12.9 0.00 0.00 0.00 21 1011.6
20200929124910 28 330 3.2 12.9 0.00 0.00 0.00 21 1011.6
20200929124708 28 340 8.0 12.9 0.00 0.00 0.00 21 1011.6
20200929124520 28 337 11.3 14.5 0.00 0.00 0.00 22 1011.7
20200929124305 28 336 9.7 14.5 0.00 0.00 0.00 22 1011.7
20200929124104 28 2 3.2 11.3 0.00 0.00 0.00 22 1011.7
20200929123906 28 348 6.4 11.3 0.00 0.00 0.00 22 1011.7
20200929123701 28 344 8.0 11.3 0.00 0.00 0.00 22 1011.8
20200929123510 28 14 4.8 11.3 0.00 0.00 0.00 22 1011.8
20200929123303 28 312 8.0 11.3 0.00 0.00 0.00 22 1011.9
20200929123058 28 7 6.4 14.5 0.00 0.00 0.00 23 1011.9
20200929122855 28 333 8.0 14.5 0.00 0.00 0.00 23 1011.9
20200929122653 28 341 8.0 14.5 0.00 0.00 0.00 23 1012.0
20200929122451 27 316 4.8 14.5 0.00 0.00 0.00 23 1012.0
20200929122251 27 336 9.7 14.5 0.00 0.00 0.00 24 1012.1
20200929122050 27 336 9.7 11.3 0.00 0.00 0.00 24 1012.1
20200929121847 27 331 4.8 11.3 0.00 0.00 0.00 23 1012.1
20200929121645 27 39 8.0 12.9 0.00 0.00 0.00 24 1012.1
20200929121446 27 341 4.8 12.9 0.00 0.00 0.00 25 1012.1
20200929121243 28 316 6.4 12.9 0.00 0.00 0.00 24 1012.2
20200929120637 27 337 8.0 12.9 0.00 0.00 0.00 26 1012.3
20200929120436 27 350 8.0 12.9 0.00 0.00 0.00 26 1012.3
20200929120236 27 348 4.8 12.9 0.00 0.00 0.00 26 1012.3
20200929120039 27 316 8.0 12.9 0.00 0.00 0.00 26 1012.3
20200929115831 27 357 4.8 12.9 0.00 0.00 0.00 26 1012.4
20200929115629 27 350 6.4 8.0 0.00 0.00 0.00 26 1012.3
20200929115431 28 323 1.6 8.0 0.00 0.00 0.00 27 1012.4
20200929115226 27 312 3.2 8.0 0.00 0.00 0.00 27 1012.4
20200929115025 27 340 4.8 8.0 0.00 0.00 0.00 28 1012.4
20200929114824 27 358 4.8 8.0 0.00 0.00 0.00 27 1012.5
20200929114622 27 322 4.8 6.4 0.00 0.00 0.00 28 1012.4
20200929114422 27 14 1.6 6.4 0.00 0.00 0.00 26 1012.4
20200929114233 27 326 3.2 6.4 0.00 0.00 0.00 28 1012.4
20200929114027 27 8 0.0 8.0 0.00 0.00 0.00 29 1012.5
20200929113819 27 78 1.6 8.0 0.00 0.00 0.00 29 1012.4
20200929113614 27 330 4.8 9.7 0.00 0.00 0.00 29 1012.4
20200929113413 26 293 1.6 9.7 0.00 0.00 0.00 30 1012.4
20200929113210 26 29 0.0 9.7 0.00 0.00 0.00 30 1012.4
20200929113022 26 215 1.6 9.7 0.00 0.00 0.00 32 1012.5
20200929112807 26 334 0.0 9.7 0.00 0.00 0.00 31 1012.4
20200929112607 26 52 4.8 6.4 0.00 0.00 0.00 33 1012.5
20200929112413 26 337 4.8 6.4 0.00 0.00 0.00 34 1012.5
20200929112207 26 334 4.8 6.4 0.00 0.00 0.00 34 1012.5
20200929112001 26 334 4.8 8.0 0.00 0.00 0.00 34 1012.6
20200929111801 26 340 0.0 8.0 0.00 0.00 0.00 35 1012.6
20200929111611 26 338 3.2 4.8 0.00 0.00 0.00 35 1012.6
20200929111357 26 358 3.2 4.8 0.00 0.00 0.00 35 1012.7
20200929111155 26 319 0.0 4.8 0.00 0.00 0.00 36 1012.7
20200929110954 25 320 0.0 8.0 0.00 0.00 0.00 37 1012.7
20200929110753 25 344 3.2 8.0 0.00 0.00 0.00 37 1012.7
20200929110550 25 333 3.2 8.0 0.00 0.00 0.00 37 1012.7
20200929110348 26 316 4.8 8.0 0.00 0.00 0.00 38 1012.7
20200929110147 25 336 6.4 8.0 0.00 0.00 0.00 37 1012.8
20200929105948 25 303 1.6 8.0 0.00 0.00 0.00 38 1012.8
20200929105744 25 303 0.0 8.0 0.00 0.00 0.00 39 1012.8
20200929105545 25 343 0.0 8.0 0.00 0.00 0.00 40 1012.8
20200929105346 25 271 1.6 8.0 0.00 0.00 0.00 40 1012.8
20200929105140 24 334 0.0 4.8 0.00 0.00 0.00 42 1012.8
20200929104939 24 45 0.0 4.8 0.00 0.00 0.00 42 1012.8
20200929104739 24 323 3.2 4.8 0.00 0.00 0.00 42 1012.8
20200929104536 24 323 0.0 8.0 0.00 0.00 0.00 43 1012.8
20200929104333 24 324 1.6 8.0 0.00 0.00 0.00 42 1012.8
20200929104132 23 2 1.6 4.8 0.00 0.00 0.00 44 1012.8
20200929103931 23 358 0.0 4.8 0.00 0.00 0.00 45 1012.8
20200929103728 23 23 4.8 4.8 0.00 0.00 0.00 46 1012.9
20200929103527 23 320 1.6 6.4 0.00 0.00 0.00 47 1012.9
20200929103326 23 326 1.6 6.4 0.00 0.00 0.00 47 1012.9
20200929103124 23 344 0.0 8.0 0.00 0.00 0.00 49 1012.9
20200929102924 22 357 3.2 8.0 0.00 0.00 0.00 49 1012.9
20200929102720 22 333 4.8 8.0 0.00 0.00 0.00 49 1013.0
20200929102519 22 71 4.8 8.0 0.00 0.00 0.00 50 1013.0
20200929102318 22 350 4.8 8.0 0.00 0.00 0.00 51 1012.9
20200929102119 22 15 4.8 8.0 0.00 0.00 0.00 51 1013.0
20200929101914 22 358 4.8 8.0 0.00 0.00 0.00 51 1013.0
20200929101714 21 1 3.2 8.0 0.00 0.00 0.00 52 1013.0
20200929101534 21 336 3.2 8.0 0.00 0.00 0.00 52 1012.9
20200929101312 21 358 4.8 8.0 0.00 0.00 0.00 53 1013.0
20200929101114 21 331 4.8 8.0 0.00 0.00 0.00 53 1013.0
20200929100907 21 22 4.8 8.0 0.00 0.00 0.00 52 1013.0
20200929100705 21 7 4.8 8.0 0.00 0.00 0.00 52 1013.0
20200929100509 21 336 3.2 6.4 0.00 0.00 0.00 52 1013.0
20200929100304 21 341 3.2 6.4 0.00 0.00 0.00 52 1013.0
20200929100104 21 21 1.6 6.4 0.00 0.00 0.00 53 1013.0
20200929095859 21 316 0.0 6.4 0.00 0.00 0.00 53 1013.0
20200929095657 21 341 3.2 6.4 0.00 0.00 0.00 53 1013.0
20200929095456 21 330 4.8 6.4 0.00 0.00 0.00 55 1012.9
20200929095255 21 5 0.0 6.4 0.00 0.00 0.00 55 1012.9
20200929095052 21 340 0.0 8.0 0.00 0.00 0.00 56 1012.9
20200929094852 21 348 1.6 8.0 0.00 0.00 0.00 57 1012.9
20200929094650 20 28 3.2 4.8 0.00 0.00 0.00 56 1013.0
20200929094448 20 347 6.4 4.8 0.00 0.00 0.00 56 1012.9
20200929094246 21 340 3.2 4.8 0.00 0.00 0.00 56 1013.0
20200929094045 20 334 1.6 4.8 0.00 0.00 0.00 56 1013.0
20200929093843 20 352 3.2 4.8 0.00 0.00 0.00 57 1013.0
20200929093643 20 317 0.0 6.4 0.00 0.00 0.00 57 1013.0
20200929093441 20 23 3.2 6.4 0.00 0.00 0.00 58 1013.0
20200929093238 20 354 0.0 6.4 0.00 0.00 0.00 58 1013.0
20200929093036 20 327 0.0 6.4 0.00 0.00 0.00 58 1013.0
20200929092834 20 347 4.8 6.4 0.00 0.00 0.00 58 1013.0
20200929092633 20 296 1.6 4.8 0.00 0.00 0.00 58 1013.0
20200929092431 20 343 1.6 4.8 0.00 0.00 0.00 58 1013.0
20200929092233 20 337 0.0 4.8 0.00 0.00 0.00 58 1013.0
20200929092028 20 357 3.2 0.0 0.00 0.00 0.00 58 1012.9
20200929091827 20 330 0.0 0.0 0.00 0.00 0.00 57 1012.9
20200929091626 20 330 0.0 1.6 0.00 0.00 0.00 58 1012.9
20200929091423 20 330 0.0 1.6 0.00 0.00 0.00 58 1012.9
20200929091227 20 330 0.0 1.6 0.00 0.00 0.00 58 1012.9
20200929091023 20 330 0.0 1.6 0.00 0.00 0.00 58 1012.8
20200929090821 20 330 0.0 1.6 0.00 0.00 0.00 58 1012.9
20200929090619 20 333 0.0 3.2 0.00 0.00 0.00 58 1012.9
20200929090417 20 91 0.0 3.2 0.00 0.00 0.00 59 1012.9
20200929090217 20 91 0.0 3.2 0.00 0.00 0.00 59 1012.9
20200929090025 20 75 0.0 4.8 0.00 0.00 0.00 60 1012.9
20200929085813 20 330 0.0 4.8 0.00 0.00 0.00 60 1012.9
20200929085612 19 330 0.0 3.2 0.00 0.00 0.00 60 1012.9
20200929085408 19 334 0.0 3.2 0.00 0.00 0.00 60 1012.9
20200929085207 19 258 0.0 3.2 0.00 0.00 0.00 60 1012.9
20200929085011 19 258 1.6 4.8 0.00 0.00 0.00 60 1012.9
20200929084812 19 354 0.0 4.8 0.00 0.00 0.00 60 1012.9
20200929084601 19 5 0.0 3.2 0.00 0.00 0.00 60 1012.9
20200929084401 18 327 0.0 3.2 0.00 0.00 0.00 61 1012.9
20200929084158 18 333 1.6 3.2 0.00 0.00 0.00 61 1012.9
20200929083957 18 323 0.0 3.2 0.00 0.00 0.00 61 1012.9
20200929083757 18 306 1.6 3.2 0.00 0.00 0.00 61 1012.9
20200929083557 19 2 0.0 4.8 0.00 0.00 0.00 61 1012.9
20200929083352 18 303 1.6 4.8 0.00 0.00 0.00 61 1012.9
20200929083151 18 299 0.0 9.7 0.00 0.00 0.00 62 1012.9
20200929082949 18 98 0.0 9.7 0.00 0.00 0.00 62 1012.9
20200929082749 18 222 0.0 9.7 0.00 0.00 0.00 62 1012.8
20200929082546 18 292 0.0 8.0 0.00 0.00 0.00 62 1012.8
20200929082346 18 198 1.6 8.0 0.00 0.00 0.00 61 1012.8
20200929082145 18 30 0.0 11.3 0.00 0.00 0.00 61 1012.8
20200929081942 18 341 3.2 11.3 0.00 0.00 0.00 61 1012.8
20200929081740 18 66 3.2 11.3 0.00 0.00 0.00 60 1012.7
20200929081539 18 101 1.6 8.0 0.00 0.00 0.00 60 1012.8
20200929081336 18 310 0.0 8.0 0.00 0.00 0.00 59 1012.8
20200929081135 18 168 1.6 11.3 0.00 0.00 0.00 59 1012.7
20200929080934 18 119 1.6 11.3 0.00 0.00 0.00 60 1012.7
20200929080732 18 97 0.0 11.3 0.00 0.00 0.00 59 1012.7
20200929080533 18 105 3.2 9.7 0.00 0.00 0.00 58 1012.7
20200929080330 18 119 6.4 9.7 0.00 0.00 0.00 58 1012.6
20200929080127 18 165 1.6 9.7 0.00 0.00 0.00 58 1012.7
20200929075926 18 125 1.6 9.7 0.00 0.00 0.00 57 1012.6
20200929075726 18 115 3.2 9.7 0.00 0.00 0.00 57 1012.6
20200929075523 18 116 6.4 9.7 0.00 0.00 0.00 56 1012.6
20200929075321 18 167 4.8 9.7 0.00 0.00 0.00 55 1012.6
20200929075122 19 119 8.0 9.7 0.00 0.00 0.00 55 1012.5
20200929074918 19 98 0.0 9.7 0.00 0.00 0.00 55 1012.6
20200929074717 19 261 3.2 9.7 0.00 0.00 0.00 54 1012.5
20200929074524 19 88 0.0 6.4 0.00 0.00 0.00 54 1012.5
20200929074317 18 119 3.2 6.4 0.00 0.00 0.00 54 1012.5
20200929074112 19 320 0.0 11.3 0.00 0.00 0.00 54 1012.5
20200929073911 18 265 4.8 11.3 0.00 0.00 0.00 54 1012.5
20200929073708 18 78 0.0 11.3 0.00 0.00 0.00 53 1012.5
20200929073513 19 118 3.2 11.3 0.00 0.00 0.00 54 1012.4
20200929073309 18 156 3.2 11.3 0.00 0.00 0.00 54 1012.5
20200929073105 19 122 1.6 9.7 0.00 0.00 0.00 55 1012.4
20200929072902 18 45 1.6 9.7 0.00 0.00 0.00 54 1012.4
20200929072702 18 80 3.2 9.7 0.00 0.00 0.00 54 1012.3
20200929072501 18 310 6.4 9.7 0.00 0.00 0.00 55 1012.4
20200929072300 18 154 3.2 9.7 0.00 0.00 0.00 55 1012.3
20200929072058 18 88 1.6 9.7 0.00 0.00 0.00 55 1012.3
20200929071856 18 199 0.0 9.7 0.00 0.00 0.00 56 1012.3
20200929071654 18 101 3.2 9.7 0.00 0.00 0.00 57 1012.2
20200929071458 18 59 1.6 9.7 0.00 0.00 0.00 57 1012.2
20200929071250 18 139 0.0 9.7 0.00 0.00 0.00 58 1012.2
20200929071048 17 151 0.0 9.7 0.00 0.00 0.00 59 1012.2
20200929070848 17 104 6.4 9.7 0.00 0.00 0.00 59 1012.1
20200929070648 17 154 1.6 6.4 0.00 0.00 0.00 60 1012.2
20200929070444 17 140 1.6 6.4 0.00 0.00 0.00 62 1012.1
20200929070244 17 132 1.6 6.4 0.00 0.00 0.00 63 1012.1
20200929070044 16 116 1.6 8.0 0.00 0.00 0.00 64 1012.1
20200929065840 16 226 1.6 8.0 0.00 0.00 0.00 65 1012.1
20200929065641 16 118 1.6 6.4 0.00 0.00 0.00 66 1012.1
20200929065439 16 338 0.0 6.4 0.00 0.00 0.00 66 1012.1
20200929065234 16 307 1.6 6.4 0.00 0.00 0.00 67 1012.0
20200929065034 16 139 4.8 6.4 0.00 0.00 0.00 69 1012.0
20200929064840 15 248 1.6 6.4 0.00 0.00 0.00 70 1011.9
20200929064630 15 98 4.8 6.4 0.00 0.00 0.00 70 1012.0
20200929064429 15 222 1.6 6.4 0.00 0.00 0.00 70 1012.0
20200929064227 15 129 0.0 6.4 0.00 0.00 0.00 70 1012.0
20200929064027 15 354 3.2 8.0 0.00 0.00 0.00 70 1012.0
20200929063834 15 182 3.2 8.0 0.00 0.00 0.00 70 1011.8
20200929063622 15 255 3.2 6.4 0.00 0.00 0.00 70 1011.9
20200929063420 15 139 3.2 6.4 0.00 0.00 0.00 70 1011.9
20200929063218 15 292 3.2 6.4 0.00 0.00 0.00 70 1011.9
20200929063025 15 322 0.0 9.7 0.00 0.00 0.00 70 1011.9
20200929062815 15 175 0.0 9.7 0.00 0.00 0.00 70 1011.9
20200929062618 15 250 1.6 9.7 0.00 0.00 0.00 70 1011.9
20200929062414 15 258 1.6 9.7 0.00 0.00 0.00 70 1011.8
20200929062211 15 305 4.8 9.7 0.00 0.00 0.00 70 1011.8
20200929062022 15 199 1.6 9.7 0.00 0.00 0.00 70 1011.8
20200929061808 15 85 0.0 9.7 0.00 0.00 0.00 69 1011.8
20200929061607 15 234 0.0 8.0 0.00 0.00 0.00 69 1011.8
20200929061405 15 327 3.2 8.0 0.00 0.00 0.00 69 1011.8
20200929061203 15 149 0.0 8.0 0.00 0.00 0.00 69 1011.8
20200929061012 15 267 1.6 11.3 0.00 0.00 0.00 69 1011.7
20200929060801 15 267 1.6 11.3 0.00 0.00 0.00 69 1011.8
20200929060601 15 323 4.8 9.7 0.00 0.00 0.00 69 1011.7
20200929060357 15 127 1.6 9.7 0.00 0.00 0.00 69 1011.7
20200929060158 15 198 0.0 9.7 0.00 0.00 0.00 69 1011.7
20200929055957 15 129 0.0 8.0 0.00 0.00 0.00 69 1011.6
20200929055753 15 309 1.6 8.0 0.00 0.00 0.00 69 1011.7
20200929055551 15 327 6.4 6.4 0.00 0.00 0.00 69 1011.6
20200929055349 15 244 1.6 6.4 0.00 0.00 0.00 69 1011.6
20200929055147 15 334 3.2 6.4 0.00 0.00 0.00 69 1011.6
20200929054947 15 270 1.6 6.4 0.00 0.00 0.00 69 1011.6
20200929054744 15 56 1.6 6.4 0.00 0.00 0.00 69 1011.7
20200929054544 15 312 1.6 6.4 0.00 0.00 0.00 69 1011.6
20200929054347 15 272 0.0 6.4 0.00 0.00 0.00 69 1011.6
20200929054141 15 358 3.2 11.3 0.00 0.00 0.00 69 1011.7
20200929053939 15 265 0.0 11.3 0.00 0.00 0.00 69 1011.6
20200929053737 15 122 0.0 11.3 0.00 0.00 0.00 69 1011.7
20200929053535 15 300 3.2 3.2 0.00 0.00 0.00 69 1011.6
20200929053345 15 326 0.0 3.2 0.00 0.00 0.00 69 1011.6
20200929053132 15 201 1.6 4.8 0.00 0.00 0.00 69 1011.7
20200929052934 15 97 1.6 4.8 0.00 0.00 0.00 69 1011.7
20200929052730 15 213 0.0 4.8 0.00 0.00 0.00 70 1011.7
20200929052528 15 305 0.0 6.4 0.00 0.00 0.00 70 1011.7
20200929052326 15 97 0.0 6.4 0.00 0.00 0.00 70 1011.7
20200929052126 15 247 0.0 4.8 0.00 0.00 0.00 70 1011.6
20200929051925 15 247 0.0 4.8 0.00 0.00 0.00 70 1011.6
20200929051722 16 307 0.0 4.8 0.00 0.00 0.00 70 1011.6
20200929051528 15 181 1.6 6.4 0.00 0.00 0.00 70 1011.6
20200929051321 15 57 0.0 6.4 0.00 0.00 0.00 70 1011.5
20200929051118 15 257 4.8 6.4 0.00 0.00 0.00 70 1011.7
20200929050920 16 336 1.6 6.4 0.00 0.00 0.00 70 1011.6
20200929050713 16 8 0.0 6.4 0.00 0.00 0.00 70 1011.6
20200929050512 16 92 1.6 4.8 0.00 0.00 0.00 70 1011.5
20200929050310 16 272 1.6 4.8 0.00 0.00 0.00 70 1011.5
20200929050111 16 191 0.0 6.4 0.00 0.00 0.00 70 1011.5
20200929045907 16 151 3.2 6.4 0.00 0.00 0.00 70 1011.5
20200929045706 16 184 1.6 6.4 0.00 0.00 0.00 71 1011.6
20200929045508 16 288 1.6 8.0 0.00 0.00 0.00 71 1011.5
20200929045305 16 236 0.0 8.0 0.00 0.00 0.00 71 1011.5
20200929045100 16 113 3.2 8.0 0.00 0.00 0.00 71 1011.5
20200929044859 16 250 1.6 8.0 0.00 0.00 0.00 71 1011.5
20200929044658 16 85 3.2 8.0 0.00 0.00 0.00 71 1011.5
20200929044500 16 104 0.0 6.4 0.00 0.00 0.00 71 1011.4
20200929044255 16 265 1.6 6.4 0.00 0.00 0.00 71 1011.5
20200929044055 15 115 3.2 11.3 0.00 0.00 0.00 71 1011.4
20200929043854 16 265 0.0 11.3 0.00 0.00 0.00 71 1011.4
20200929043655 16 130 1.6 9.7 0.00 0.00 0.00 71 1011.4
20200929043449 16 241 1.6 9.7 0.00 0.00 0.00 71 1011.4
20200929043248 16 18 1.6 9.7 0.00 0.00 0.00 71 1011.4
20200929043045 16 226 1.6 9.7 0.00 0.00 0.00 71 1011.3
20200929042844 16 322 1.6 9.7 0.00 0.00 0.00 71 1011.4
20200929042642 16 264 1.6 4.8 0.00 0.00 0.00 71 1011.3
20200929042449 16 279 0.0 4.8 0.00 0.00 0.00 72 1011.4
20200929042241 16 123 1.6 4.8 0.00 0.00 0.00 72 1011.3
20200929041836 16 258 0.0 8.0 0.00 0.00 0.00 72 1011.4
20200929041635 16 57 0.0 11.3 0.00 0.00 0.00 72 1011.4
20200929041434 16 39 0.0 11.3 0.00 0.00 0.00 72 1011.3
20200929041233 16 319 3.2 11.3 0.00 0.00 0.00 72 1011.4
20200929041030 16 67 0.0 6.4 0.00 0.00 0.00 72 1011.3
20200929040837 16 161 1.6 6.4 0.00 0.00 0.00 73 1011.3
20200929040628 16 324 0.0 8.0 0.00 0.00 0.00 73 1011.3
20200929040425 16 315 1.6 8.0 0.00 0.00 0.00 73 1011.3
20200929040223 16 151 0.0 8.0 0.00 0.00 0.00 73 1011.3
20200929040027 16 156 3.2 8.0 0.00 0.00 0.00 73 1011.3
20200929035819 16 164 0.0 8.0 0.00 0.00 0.00 74 1011.3
20200929035618 16 87 8.0 9.7 0.00 0.00 0.00 74 1011.2
20200929035417 16 341 4.8 9.7 0.00 0.00 0.00 74 1011.2
20200929035215 16 340 0.0 9.7 0.00 0.00 0.00 74 1011.3
20200929035017 16 78 1.6 12.9 0.00 0.00 0.00 74 1011.2
20200929034811 16 118 6.4 12.9 0.00 0.00 0.00 75 1011.3
20200929034618 16 189 1.6 12.9 0.00 0.00 0.00 75 1011.3
20200929034408 16 156 4.8 12.9 0.00 0.00 0.00 75 1011.3
20200929034209 16 313 8.0 12.9 0.00 0.00 0.00 75 1011.3
20200929034008 16 113 0.0 12.9 0.00 0.00 0.00 75 1011.3
20200929033814 16 82 3.2 12.9 0.00 0.00 0.00 75 1011.3
20200929033609 16 105 6.4 9.7 0.00 0.00 0.00 75 1011.3
20200929033402 16 11 4.8 9.7 0.00 0.00 0.00 75 1011.3
20200929033159 16 123 3.2 9.7 0.00 0.00 0.00 74 1011.3
20200929032957 16 265 3.2 8.0 0.00 0.00 0.00 74 1011.3
20200929032800 16 130 0.0 8.0 0.00 0.00 0.00 74 1011.2
20200929032558 16 149 1.6 8.0 0.00 0.00 0.00 74 1011.2
20200929032353 16 355 1.6 8.0 0.00 0.00 0.00 74 1011.1
20200929032151 16 191 0.0 8.0 0.00 0.00 0.00 74 1011.2
20200929031950 16 310 3.2 8.0 0.00 0.00 0.00 74 1011.2